DateTimeUTC,F1_A11,F1_S11,BsB_S11,BsG_S11,BsR_S11,BbsB_S11,BbsG_S11,BbsR_S11,BaB_A11,BaG_A11,BaR_A11,Tu_S11,T_S11,Uu_S11,U_S11,P_S11,T1_A11
2021-08-08T23:00:00Z,00000200,20000000,,,,,,,-000.02,-000.02,-000.36,18.9,25.6,07.5,05.0,0669.0,31.0
2021-08-08T23:01:00Z,00000200,20000000,,,,,,,0000.07,-000.46,-000.08,18.9,25.6,07.2,04.8,0669.0,31.0
2021-08-08T23:02:00Z,00000200,20000000,,,,,,,-000.16,0000.04,-000.25,18.9,25.6,07.2,04.8,0669.0,31.0
2021-08-08T23:03:00Z,00000200,60000000,,,,,,,-000.27,-000.05,0000.04,18.9,25.6,07.2,04.8,0669.0,31.0
2021-08-08T23:04:00Z,00000200,40000000,0001.70,0000.66,0000.34,0000.04,0000.05,-000.15,-000.17,-000.35,-000.33,19.0,25.4,07.1,04.8,0669.9,31.0
2021-08-08T23:05:00Z,00000200,00000000,0001.53,0000.82,0000.41,-000.09,0000.33,0000.17,-000.11,0000.07,0000.64,19.0,25.4,07.1,04.8,0670.0,31.0
2021-08-08T23:06:00Z,00000200,00000000,0001.04,0000.56,0000.32,0000.41,-000.05,-000.21,0000.30,0000.09,-000.25,19.0,25.4,07.1,04.8,0670.0,31.0
2021-08-08T23:07:00Z,00000200,00000000,0002.06,0000.77,0000.07,-000.25,0000.06,-000.31,-000.13,-000.37,0000.42,19.0,25.4,07.1,04.8,0670.0,31.0
2021-08-08T23:08:00Z,00000200,00000000,0001.44,0000.84,0000.29,0000.13,0000.15,-000.31,-000.09,0000.13,-000.18,19.0,25.4,07.0,04.8,0670.0,31.0
2021-08-08T23:09:00Z,00000200,00000000,0001.85,0000.68,0000.48,0000.62,-000.18,-000.05,-000.22,-000.01,0000.08,19.0,25.3,07.0,04.8,0670.1,31.0
2021-08-08T23:10:00Z,00000200,00000000,0001.56,0000.23,0000.15,0000.18,0000.09,-000.23,-000.11,0000.10,0000.15,19.0,25.3,07.0,04.8,0670.1,31.0
2021-08-08T23:11:00Z,00000200,00000000,0001.50,0000.64,0000.53,0000.01,0000.01,-000.04,-000.01,0000.32,0000.08,19.0,25.3,07.0,04.8,0670.0,31.0
2021-08-08T23:12:00Z,00000200,00000000,0000.93,0000.66,0000.19,-000.43,-000.14,-000.03,-000.04,-000.34,-000.02,19.0,25.3,07.1,04.8,0670.0,31.0
2021-08-08T23:13:00Z,00000200,00000000,0002.28,0000.60,0000.41,-000.20,0000.08,0000.10,-000.14,-000.04,0000.23,19.0,25.3,07.0,04.8,0670.0,31.0
2021-08-08T23:14:00Z,00000200,00000000,0001.37,0000.52,0000.39,-000.11,0000.11,0000.21,0000.31,0000.48,0000.01,19.0,25.3,07.0,04.8,0670.0,31.0
2021-08-08T23:15:00Z,00000200,00000000,0001.84,0000.27,0000.20,0000.29,0000.10,-000.08,-000.07,-000.35,-000.32,19.0,25.3,07.0,04.7,0670.0,31.0
2021-08-08T23:16:00Z,00000200,00000000,0002.04,0000.69,0000.24,-000.09,0000.54,0000.05,-000.12,-000.19,0000.26,19.0,25.3,07.0,04.8,0670.0,31.0
2021-08-08T23:17:00Z,00000200,00000000,0001.54,0000.50,0000.48,-000.57,0000.16,-000.09,-000.12,-000.12,-000.22,19.0,25.3,06.9,04.7,0670.0,31.0
2021-08-08T23:18:00Z,00000200,00000000,0001.66,0000.78,0000.45,-000.05,0000.15,-000.01,-000.01,0000.41,0000.55,19.0,25.3,06.9,04.7,0670.0,31.0
2021-08-08T23:19:00Z,00000200,00000000,0001.42,0000.69,0000.36,0000.02,0000.14,-000.19,-000.11,-000.31,-000.04,19.0,25.3,06.9,04.7,0670.1,31.0
2021-08-08T23:20:00Z,00000200,00000000,0001.75,0000.63,-000.08,-000.06,0000.30,-000.22,0000.12,0000.22,0000.23,19.0,25.3,06.9,04.7,0670.1,31.0
2021-08-08T23:21:00Z,00000200,00000000,0001.62,0000.86,0000.44,0000.27,0000.10,-000.11,-000.24,-000.10,-000.13,19.0,25.3,06.9,04.7,0670.1,31.0
2021-08-08T23:22:00Z,00000200,00000000,0001.94,0000.45,0000.06,-000.08,0000.05,-000.14,0000.01,-000.19,-000.01,19.0,25.3,06.8,04.6,0670.1,31.0
2021-08-08T23:23:00Z,00000200,00000000,0001.19,0000.74,0000.49,-000.37,0000.15,0000.17,0000.16,0000.22,0000.49,19.0,25.3,06.9,04.7,0670.1,31.0
2021-08-08T23:24:00Z,00000200,00000000,0001.62,0000.65,0000.41,0000.20,0000.39,0000.06,0000.15,-000.08,-000.30,19.0,25.3,06.8,04.7,0670.1,31.0
2021-08-08T23:25:00Z,00000200,00000000,0000.99,0000.70,0000.45,0000.35,-000.03,-000.37,0000.15,-000.05,0000.13,19.0,25.3,06.9,04.7,0670.1,31.0
2021-08-08T23:26:00Z,00000200,00000000,0001.12,0000.50,0000.09,-000.78,0000.11,0000.43,-000.49,0000.10,-000.19,19.0,25.3,06.8,04.6,0670.1,31.0
2021-08-08T23:27:00Z,00000200,00000000,0000.90,0000.75,0000.29,-000.57,0000.19,0000.21,0000.18,-000.30,0000.02,19.0,25.3,06.8,04.6,0670.1,31.0
2021-08-08T23:28:00Z,00000200,00000000,0001.32,0000.53,0000.48,0000.02,-000.03,-000.12,-000.17,0000.12,0000.23,19.0,25.3,06.7,04.5,0670.1,31.0
2021-08-08T23:29:00Z,00000200,00000000,0001.15,0000.65,0000.54,0000.14,0000.08,0000.12,-000.11,-000.07,-000.07,19.0,25.3,06.7,04.6,0670.1,31.0
2021-08-08T23:30:00Z,00000200,00000000,0000.60,0000.59,0000.72,0000.03,0000.10,-000.03,0000.14,0000.22,0000.21,19.0,25.3,06.7,04.6,0670.1,31.0
2021-08-08T23:31:00Z,00000200,00000000,0001.44,0000.49,0000.70,0000.07,0000.24,0000.26,0000.40,0000.19,0000.18,19.0,25.3,06.7,04.6,0670.1,31.0
2021-08-08T23:32:00Z,00000200,00000000,0000.55,0000.58,0000.24,-000.05,-000.05,-000.13,-000.10,0000.11,0000.13,19.0,25.2,06.8,04.6,0670.1,31.0
2021-08-08T23:33:00Z,00000200,00000000,0000.82,0000.47,0000.61,-000.61,0000.22,0000.02,-000.12,0000.04,-000.29,19.0,25.2,06.7,04.6,0670.1,31.0
2021-08-08T23:34:00Z,00000200,00000000,0001.10,0000.78,0000.51,0000.10,0000.27,0000.19,-000.13,-000.27,-000.33,19.0,25.2,06.7,04.5,0670.1,31.0
2021-08-08T23:35:00Z,00000200,00000000,0001.29,0000.74,0000.01,-000.02,-000.20,0000.14,-000.27,0000.02,0000.35,19.0,25.2,06.5,04.5,0670.1,31.0
2021-08-08T23:36:00Z,00000200,00000000,0000.81,0000.22,0000.35,-000.10,0000.14,0000.16,0000.05,-000.04,0000.22,19.0,25.2,06.5,04.4,0670.1,31.0
2021-08-08T23:37:00Z,00000200,00000000,0000.80,0000.55,0000.57,0000.36,0000.08,0000.22,0000.17,0000.06,-000.17,19.0,25.2,06.6,04.5,0670.1,31.0
2021-08-08T23:38:00Z,00000200,00000000,0001.25,0000.78,0000.18,-000.07,0000.02,-000.27,-000.07,-000.11,0000.26,19.0,25.2,06.6,04.5,0670.1,31.0
2021-08-08T23:39:00Z,00000200,00000000,0001.26,0000.52,0000.45,-000.12,0000.26,0000.07,0000.06,0000.16,0000.18,18.9,25.2,06.6,04.5,0670.1,31.0
2021-08-08T23:40:00Z,00000200,00000000,0001.39,0000.70,0000.66,-000.32,0000.04,0000.12,0000.33,-000.12,-000.16,18.9,25.2,06.5,04.4,0670.1,31.0
2021-08-08T23:41:00Z,00000200,00000000,0001.10,0000.83,0000.21,-000.28,0000.17,-000.12,-000.23,0000.10,-000.09,18.9,25.2,06.6,04.5,0670.1,31.0
2021-08-08T23:42:00Z,00000200,00000000,0001.77,0000.49,0000.30,-000.08,0000.25,0000.19,0000.48,0000.50,0000.70,18.9,25.2,06.5,04.4,0670.1,31.0
2021-08-08T23:43:00Z,00000200,00000000,0001.34,0000.17,0000.50,-000.07,-000.00,0000.32,-000.51,-000.56,-000.65,18.9,25.2,06.6,04.5,0670.1,31.0
2021-08-08T23:44:00Z,00000200,00000000,0000.60,0000.74,0000.42,-000.37,0000.17,0000.24,0000.47,0000.36,0000.39,18.9,25.2,06.5,04.4,0670.1,31.0
2021-08-08T23:45:00Z,00000200,00000000,0001.12,0000.66,0000.60,0000.47,0000.31,0000.08,-000.17,0000.31,0000.37,18.9,25.2,06.5,04.5,0670.1,31.0
2021-08-08T23:46:00Z,00000200,00000000,0001.11,0000.67,0000.27,0000.31,0000.14,0000.02,-000.19,-000.09,0000.17,18.9,25.2,06.6,04.5,0670.1,31.0
2021-08-08T23:47:00Z,00000200,00000000,0000.62,0001.13,0000.45,0000.49,-000.17,-000.08,0000.25,0000.09,-000.06,18.9,25.2,06.6,04.5,0670.1,31.0
2021-08-08T23:48:00Z,00000200,00000000,0001.22,0000.64,0000.50,-000.11,0000.15,0000.11,0000.21,0000.05,0000.48,18.9,25.2,06.6,04.5,0670.1,31.0
2021-08-08T23:49:00Z,00000200,00000000,0001.97,0000.72,0000.40,-000.11,0000.05,0000.24,-000.46,-000.17,-000.45,18.9,25.2,06.6,04.5,0670.1,31.0
2021-08-08T23:50:00Z,00000200,00000000,0000.96,0000.83,0000.35,0000.51,-000.17,0000.09,0000.25,-000.21,-000.09,18.9,25.2,06.4,04.4,0670.1,31.0
2021-08-08T23:51:00Z,00000200,00000000,0000.84,0000.81,0000.45,-000.02,0000.27,0000.21,-000.20,0000.03,0000.10,18.9,25.2,06.5,04.4,0670.1,31.0
2021-08-08T23:52:00Z,00000200,00000000,0001.86,0000.92,0000.36,0000.12,-000.12,-000.20,0000.09,0000.41,0000.04,18.9,25.2,06.4,04.4,0670.1,31.0
2021-08-08T23:53:00Z,00000200,00000000,0001.26,0000.53,0000.16,0000.22,-000.17,0000.08,-000.25,-000.46,0000.28,18.9,25.2,06.5,04.4,0670.1,31.0
2021-08-08T23:54:00Z,00000200,00000000,0001.50,0000.64,0000.29,0000.11,0000.29,0000.23,0000.26,0000.52,0000.21,18.9,25.2,06.5,04.4,0670.1,31.0
2021-08-08T23:55:00Z,00000200,00000000,0001.12,0000.85,0000.26,0000.83,0000.24,0000.21,0000.10,0000.20,0000.03,18.9,25.2,06.5,04.5,0670.1,31.0
2021-08-08T23:56:00Z,00000200,00000000,0002.42,0001.00,0000.54,-000.06,0000.28,-000.08,-000.05,-000.36,0000.17,18.9,25.2,06.5,04.4,0670.1,31.0
2021-08-08T23:57:00Z,00000200,40000000,,,,,,,0000.49,0000.82,0000.56,18.9,25.2,06.5,04.4,0670.2,31.0
2021-08-08T23:58:00Z,00000200,60000000,,,,,,,-000.47,-000.49,-000.08,18.7,25.3,06.7,04.4,0669.2,31.0
2021-08-08T23:59:00Z,00000200,20000000,,,,,,,0000.13,-000.24,-000.14,18.6,25.4,06.6,04.4,0669.1,31.0
